#timestamp,LO_Frequency,Hit,StdDev 
1553382015.6,286046998.9,N
1553382035.4,286046996.8,N
1553382055.3,286046997.9,N
1553382075.1,286046994.9,Y
1553382095.9,286046999.6,P
1553382115.7,286046999.6,N
1553382135.5,286046997.0,P
1553382155.4,286046997.1,N
1553382175.2,286046998.0,N
1553382195.0,286046996.4,Y
1553382195.9,286046996.4,P
1553382215.8,286046997.3,N
1553382235.6,286046999.4,N
1553382255.5,286046998.9,N
1553382275.3,286046998.7,N
1553382295.1,286046997.0,N
1553382315.9,286046997.5,N
1553382335.7,286046999.2,N
1553382355.5,286046999.3,N
1553382375.4,286046996.9,Y
1553382395.2,286047001.1,P
1553382415.1,286046998.3,N
1553382416.0,286046998.3,N
1553382435.8,286046999.2,N
1553382455.6,286046999.2,N
1553382475.5,286046998.9,N
1553382495.3,286046997.0,Y
1553382515.1,286046996.7,P
1553382535.9,286046999.3,N
1553382555.7,286047000.4,N
1553382575.5,286047000.1,N
1553382595.3,286047001.5,N
1553382615.2,286047001.9,N
1553382635.9,286047001.8,N
1553382655.7,286047002.3,N
1553382675.6,286046999.8,N
1553382695.4,286047000.0,N
1553382715.2,286046999.7,N
1553382735.1,286046999.8,N
1553382736.0,286046999.8,N
1553382755.8,286047001.9,N
1553382775.7,286047000.6,N
1553382795.5,286047000.3,N
1553382815.3,286047002.5,N
1553382835.2,286047004.0,N
1553382855.0,286047000.1,N
1553382855.9,286047000.1,N
1553382875.8,286046998.3,N
1553382895.6,286047000.8,N
1553382915.4,286047004.0,N
1553382935.3,286047001.7,N
1553382955.1,286047000.3,N
1553382975.9,286047000.7,N
1553382995.7,286047001.0,N
1553383015.5,286046998.6,N
1553383035.4,286046998.6,N
1553383055.2,286046998.1,N
1553383075.0,286047002.7,N
1553383075.9,286047002.7,N
1553383095.8,286047001.6,N
1553383115.6,286047001.9,N
1553383135.5,286047000.9,N
1553383155.3,286047000.8,N
1553383175.1,286047002.6,N
1553383195.9,286047004.4,N
1553383215.7,286047001.8,N
1553383235.5,286047002.8,N
1553383255.4,286047000.6,N
1553383275.2,286046999.8,N
1553383295.1,286047000.7,N
1553383296.0,286047000.7,N
1553383315.8,286046999.4,N
1553383335.6,286047000.7,N
1553383355.5,286046999.9,N
1553383375.3,286046998.3,N
1553383395.2,286047000.8,N
1553383415.9,286047001.0,N
1553383435.7,286046998.8,N
1553383455.6,286047000.9,N
1553383475.4,286047000.1,N
1553383495.2,286047000.8,N
1553383515.1,286047002.3,N
1553383516.0,286047002.3,N
1553383535.8,286047002.0,N
1553383555.7,286047002.5,N
1553383575.5,286047001.4,N
1553383595.3,286047001.7,N
1553383615.2,286047004.0,Y
1553383635.0,286047000.3,P
1553383635.9,286047000.3,N
1553383655.8,286047002.4,P
1553383675.6,286047004.4,Y
1553383695.4,286047002.4,P
1553383715.3,286047004.4,P
1553383735.1,286047001.4,N
1553383755.8,286047001.3,N
1553383775.7,286046999.7,N
1553383795.5,286047000.6,N
1553383815.4,286046999.7,N
1553383835.2,286047002.3,N
1553383855.0,286047003.2,N
1553383855.9,286047003.2,N
1553383875.8,286047005.5,Y
1553383895.6,286047001.3,P
1553383915.4,286047000.3,N
1553383935.3,286046999.3,N
1553383955.1,286046998.8,N
1553383975.9,286046996.7,N
1553383995.7,286046999.9,N
1553384015.5,286047001.3,N
1553384035.4,286047004.4,N
1553384055.2,286047001.9,N
1553384075.0,286047003.8,N
1553384075.9,286047003.8,N
1553384095.8,286046998.3,N
1553384115.6,286046999.2,N
1553384135.5,286047001.2,N
1553384155.3,286047001.0,N
1553384175.1,286046999.9,N
1553384195.9,286047004.2,N
1553384215.7,286047001.6,N
1553384235.5,286046998.1,N
1553384255.4,286046998.6,N
1553384275.2,286046998.3,N
1553384295.1,286046998.2,N
1553384296.0,286046998.2,N
1553384315.8,286046998.4,N
1553384335.6,286047000.4,N
1553384355.5,286047001.2,N
1553384375.3,286046998.5,N
1553384395.1,286046998.4,N
1553384415.9,286046998.7,N
1553384435.7,286046999.3,N
1553384455.6,286046998.7,N
1553384475.4,286047000.7,N
1553384495.2,286047001.6,N
1553384515.1,286047002.4,N
1553384516.0,286047002.4,N
1553384535.8,286046999.8,N
1553384555.6,286047000.8,N
1553384575.5,286046998.1,N
1553384595.3,286046998.8,N
1553384615.2,286046998.7,N
1553384635.0,286047002.8,N
1553384635.9,286047002.8,N
1553384655.7,286047001.0,N
1553384675.6,286047001.2,N
1553384695.4,286047002.8,N
1553384715.3,286047004.4,N
1553384735.1,286047002.0,N
1553384755.8,286047002.2,N
1553384775.7,286047002.0,N
1553384795.5,286047001.3,N
1553384815.4,286047003.8,N
1553384835.2,286047002.1,N
1553384855.0,286047000.0,N
1553384855.9,286047000.0,N
1553384875.8,286047001.1,N
1553384895.6,286046999.3,N
1553384915.4,286046999.6,N
1553384935.3,286046999.2,N
1553384955.1,286047000.5,N
1553384975.9,286047000.2,N
1553384995.7,286047004.2,N
1553385015.5,286047002.4,N
1553385035.4,286047001.7,N
1553385055.2,286047001.5,N
1553385075.0,286047005.9,Y
1553385075.9,286047005.9,P
1553385095.8,286047005.9,N
1553385115.6,286047004.0,N
1553385135.5,286047004.1,N
1553385155.3,286047005.3,Y
1553385175.1,286047000.2,P
1553385195.9,286046998.6,N
1553385215.7,286046998.8,N
1553385235.5,286047000.7,N
1553385255.4,286047002.7,N
1553385275.2,286046998.2,N
1553385295.1,286046998.3,N
1553385296.0,286046998.3,N
1553385315.8,286047001.0,N
1553385335.6,286046998.9,N
1553385355.5,286046998.0,N
1553385375.3,286046997.2,N
1553385395.1,286047000.2,N
1553385415.9,286047000.2,N
1553385435.7,286046999.7,N
1553385455.6,286046999.7,N
1553385475.4,286046999.7,N
1553385495.2,286046996.5,N
1553385515.1,286046997.8,N
1553385516.0,286046997.8,N
1553385535.8,286046997.0,N
1553385555.7,286046995.5,N
1553385575.5,286046997.5,N
1553385595.3,286046995.7,N
